Home > Weather > Christiansted > Past weeks

Flag for US Virgin Islands Past Weather in Christiansted, US Virgin Islands — Yesterday and Last 2 Weeks

Now
90 °F

Scattered clouds.


Feels Like: 105 °F
Forecast: 81 / 88 °F
Wind: 15 mph from Southeast

Location: Christiansted / Henry E. Rohlsen Airport - Saint Croix

Current Time: Aug 25, 2016 at 1:03:27 PM

Latest Report: Aug 25, 2016 at 11:53 AM


Visibility: 10 mi

Pressure: 29.94 "Hg

Humidity: 68%

Dew Point: 78 °F

Location of ChristianstedLocation

Past Weather in Christiansted — Graph

°F

Christiansted Temperature Yesterday

Maximum temperature yesterday: 86 °F (at 9:53 AM)
Minimum temperature yesterday: 78 °F (at 2:53 AM)
Average temperature yesterday: 82 °F

High & Low Weather Summary for the Past Weeks

 TemperatureHumidityPressure
High91 °F (Aug 17, 10:53 AM)97% (Aug 24, 1:53 AM)30.06 "Hg (Aug 24, 1:53 AM)
Low75 °F (Aug 21, 4:53 AM)57% (Aug 16, 1:53 PM)29.85 "Hg (Aug 24, 2:53 AM)
Average84 °F77%29.98 "Hg
* Reported Aug 10 11:53 AM — Aug 25 11:53 AM, Christiansted, Weather by CustomWeather, © 2016

Note: Actual official high and low records may vary slightly from our data, if they occured in-between our weather recording intervals... More about our weather records

Advertising

Christiansted Weather History for the Previous 24 Hours

Scroll right to see more
 ConditionsComfort  
Time TempWeatherWind HumidityBarometerVisibility
11:53 AM
Thu, Aug 25
90 °FScattered clouds.15 mph68%29.94 "Hg10 mi
10:53 AM89 °FScattered clouds.18 mph72%29.94 "Hg10 mi
9:53 AM88 °FScattered clouds.16 mph73%29.94 "Hg10 mi
8:53 AM88 °FScattered clouds.15 mph75%29.93 "Hg10 mi
7:53 AM85 °FScattered clouds.12 mph83%29.93 "Hg10 mi
7:26 AM82 °FLight rain. Cloudy.10 mph89%29.93 "Hg10 mi
6:53 AM84 °FScattered clouds.9 mph83%29.92 "Hg10 mi
5:53 AM83 °FPassing clouds.10 mph79%29.93 "Hg10 mi
4:53 AM83 °FPassing clouds.10 mph82%29.92 "Hg10 mi
4:25 AM83 °FPassing clouds.10 mph85%29.92 "Hg10 mi
3:53 AM83 °FPassing clouds.9 mph82%29.92 "Hg10 mi
2:53 AM83 °FLight rain. Passing clouds.12 mph82%29.91 "Hg10 mi
1:53 AM82 °FLight rain. Passing clouds.3 mph85%29.93 "Hg10 mi
12:53 AM83 °FPassing clouds.5 mph79%29.93 "Hg10 mi
11:53 PM
Wed, Aug 24
84 °FClear.8 mph72%29.94 "Hg10 mi
10:53 PM84 °FClear.10 mph72%29.96 "Hg10 mi
9:53 PM84 °FPassing clouds.12 mph74%29.95 "Hg10 mi
8:53 PM84 °FPassing clouds.12 mph72%29.94 "Hg10 mi
7:53 PM83 °FPassing clouds.8 mph79%29.93 "Hg10 mi
6:53 PM83 °FPassing clouds.7 mph82%29.90 "Hg10 mi
5:53 PM84 °FSunny.9 mph74%29.88 "Hg10 mi
4:53 PM84 °FScattered clouds.12 mph74%29.88 "Hg10 mi
3:53 PM84 °FBroken clouds.12 mph77%29.88 "Hg10 mi
2:53 PM83 °FBroken clouds.13 mph82%29.87 "Hg10 mi
1:53 PM82 °FLight rain. Broken clouds.3 mph91%29.87 "Hg7 mi
1:00 PM80 °FLight rain. Broken clouds.8 mph94%29.88 "Hg10 mi
Weather by CustomWeather, © 2016

See weather overviewHow to use our weather pages